YAMAL 202

Last updated on Sun Dec 21 2025 00:02:52 GMT+0000 (Coordinated Universal Time)

1 28089U 03053A 25353.51372034 -.00000061 00000+0 00000+0 0 9997 2 28089 5.8897 73.1327 0007120 184.2731 179.4140 1.00270768 80909
UTC large
Height (km)
Speed (km/s)
/
Latitude / Longitude
Inclination (degrees)
Orbital Period (minutes)
Azimuth
Elevation
Range (km)
Doppler Factor

Next 0 passes for location: London (51.5072 / 0.1276)

Sorry there are no passes over London.